{"data":{"norad_id":57944,"epoch":"2026-09-20T12:26:47.631840Z","epoch_age_seconds":136219,"freshness":"FRESH","line1":"1 57944U 23148K   26263.51860685 -.00002379  00000+0 -59306-4 0  9994","line2":"2 57944  53.1601 195.6286 0001091  90.7396 269.3731 15.34402657168305","mean_motion":15.34402657,"eccentricity":0.0001091,"inclination_deg":53.1601,"raan_deg":195.6286,"arg_perigee_deg":90.7396,"mean_anomaly_deg":269.3731,"bstar":-5.9306e-5,"rev_number":16830,"period_min":93.847595572822,"perigee_km":461.94900824594,"apogee_km":463.44167786319,"semimajor_km":6840.8323430546,"source":"CELESTRAK","updated_at":"2026-09-21T09:00:33.745986Z"}}